Showing default

TRANSIT 2A, 45

Orbit data source: Space-Track

TRANSIT 2A, 45 is a payload satellite owned by USN BuWeps (US) in LEO that was launched on Wed, 22 Jun 1960 UTC via a THOR ABLESTAR launch vehicle from the Air Force Eastern Test Range (AFETR). Payload-class satellites include a variety of spacecraft equipped with specific instruments for various scientific and technological missions. These include communications satellites like Starlink; space stations such as the ISS; scientific satellites like the Hubble; Earth observation satellites from companies like Planet Labs, Umbra, and HawkEye 360; GPS; miniature CubeSats for education and research; and military/defense satellites.

Loading next visibility...
Identifier
45, 1960-007A
Orbit
LEO
Country
Flag of USUS
Related business
Manufacturer
APL
Mission
Spacecraft
Bus & Motor
TRANSIT 1, Unknown motor
Mass
100 kg wet, 100 kg dry
Launch date (UTC)
1960-06-22 (66 years ago)
Launch vehicle
THOR ABLESTAR
Launch site
Air Force Eastern Test Range (AFETR)
Object type
Payload
Rocket body
Debris
Shape & HBR
Unknown
Radar Cross Section
Medium (>0.1 m² and <1 m²)

Expand to show TLE details & history
Last TLE update: 12 hours ago

TLE from 12 hours ago
0 TRANSIT 2A
1    45U 60007A   26145.17580824  .00000103  00000-0  51225-4 0  9998
2    45  66.6941  61.0640 0248218 177.7036 182.5272 14.35950554376741
Epoch: 2026-05-25T04:13Z
TLE epoch observation values (Epoch: 2026-05-25T04:13:09.831Z)
Latitude
-0.00007°
Longitude
115.00564°
Altitude
951.357 km
Speed
7.285 km/s
True Right ascension
04h 04m 15s
True Declination
0° 00' 00"
Sunlit
Object was in daylight at epoch
Visualization orbit readout
Latitude
Unknown
Longitude
Unknown
Altitude
Unknown
Speed
Unknown
Apparent Right ascension
Unknown
Apparent Declination
Unknown
Sunlit
N/A
Visualization observer readout
Local Sidereal Time
01:11:43
Azimuth
Unknown
Elevation
Unknown
Doppler factor
Unknown
Orbital elements
Apogee altitude
947.715 km
Perigee altitude
592.842 km
Semi-major axis
7,148.416 km
Eccentricity
0.02482
Inclination
66.6941°
RAAN
61.064°
Arg. of periapsis
177.7036°
True anomaly
182.40556°
Mean anomaly
182.5272°
Eccentric anomaly
182.46601°
Mean motion
3.59111 °/min
Orbital period
100.25 mins
BSTAR
0.000051225
Loading maneuver chart data...
Computing Atmospheric mass density...
Loading historical data...
Loading historical data...
Loading historical data...
Loading historical data...
Loading historical data...
Loading historical data...
Loading historical data...

Documentation

Showing up to 5 results
|